User: anonymous
Location: Unspecified
(42.0334°N, 93.6656°W)
Time: 11:25:19
(UTC-05:00)
Language:

Iridium 63 - Orbit

View from above orbital plane
View from above orbital plane
View from above satellite
View from above satellite

Ground track
Ground track

The orbit data is extracted from the following two-line orbital elements,

1 25286U 98021B   14106.36441633  .00000339  00000-0  11418-3 0  7772
2 25286 086.4009 348.1211 0001887 102.1230 015.3170 14.34209936839069
Epoch (UTC): 16 April 2014 08:44:45
Eccentricity: 0.0001887
inclination: 86.4009°
perigee height: 776 km
apogee height: 779 km
right ascension of ascending node: 348.1211°
argument of perigee: 102.1230°
revolutions per day: 14.34209936
mean anomaly at epoch: 15.3170°
orbit number at epoch: 83906

The dashed part of the orbit path shows where the satellite is in the earth's shadow,  

DLR